CZ-2C R/B, 61873

Orbit data source: Space-Track

CZ-2C R/B, 61873 is space debris in SSO originally from a launch on Sat, 09 Nov 2024 UTC launched from the Jiuquan Satellite Launch Center, China (JSC). Debris objects in space refer to the collection of defunct objects orbiting the Earth. Examples of debris include non-operational satellites, rocket bodies, and fragments generated from explosions, collisions, or faulty payload assembly.

Loading next visibility...
Identifier
61873, 2024-203E
Orbit
SSO
Country
Flag of CNCN / PRC
Related business
Manufacturer
BWYIC
Mission
Spacecraft
Bus & Motor
CZ-2 STAGE 2, Unknown motor
Mass
4,006 kg wet, 4,006 kg dry
Launch date (UTC)
2024-11-09 (1 year ago)
Launch vehicle
Unknown
Launch site
Jiuquan Satellite Launch Center, China (JSC)
Object type
Payload
Rocket body
Debris
Shape & HBR
Cyl, 3.7 m
Radar Cross Section
23.715 m², Large (>1 m²)

Expand to show TLE details & history
Last TLE update: 11 hours ago

TLE from 11 hours ago
0 CZ-2C R/B
1 61873U 24203E   25304.83227522  .00012548  00000-0  44130-3 0  9996
2 61873  97.3374   7.8461 0084460 331.4787  28.1842 15.26083400 54240
Epoch: 2025-10-31T19:58Z
TLE epoch observation values (Epoch: 2025-10-31T19:58:28.579Z)
Latitude
-0.00009°
Longitude
27.85598°
Altitude
439.622 km
Speed
7.676 km/s
True Right ascension
00h 31m 23s
True Declination
0° 00' 00"
Sunlit
Object was in full shadow at epoch
Visualization orbit readout
Latitude
Unknown
Longitude
Unknown
Altitude
Unknown
Speed
Unknown
Apparent Right ascension
Unknown
Apparent Declination
Unknown
Sunlit
N/A
Visualization observer readout
Local Sidereal Time
02:52:06
Azimuth
Unknown
Elevation
Unknown
Doppler factor
Unknown
Orbital elements
Apogee altitude
542.45 km
Perigee altitude
426.527 km
Semi-major axis
6,862.626 km
Eccentricity
0.00845
Inclination
97.3374°
RAAN
7.8461°
Arg. of periapsis
331.4787°
True anomaly
28.64561°
Mean anomaly
28.1842°
Eccentric anomaly
28.41447°
Mean motion
3.81775 °/min
Orbital period
94.3 mins
BSTAR
0.0004413
Loading maneuver chart data...
Computing Atmospheric mass density...
Loading historical data...
Loading historical data...
Loading historical data...
Loading historical data...
Loading historical data...
Loading historical data...
Loading historical data...
Other satellites on launch #203 in the year 2024 (2024-11-09 UTC)

Documentation

Showing up to 5 results
|